When you browse on this site, cookies collect data to enhance your experience and personalize the content and advertising you see.
Visit our Privacy Policy to learn more. By continuing to use the site, you agree to this use of cookies and data.

Meteo pe oră la Dziarnow

Astăzi, 24 Septembrie, Joi

Timp Temperatura Precipitaţii Vânt Presiune Umiditate
00:00 +18°C° 0 mm 2 m/s 744 mmHg 70%
01:00 +18°C° 0 mm 1 m/s 744 mmHg 73%
02:00 +17°C° 0 mm 2 m/s 744 mmHg 74%
03:00 +17°C° 0 mm 2 m/s 743 mmHg 75%
04:00 +17°C° 0 mm 2 m/s 743 mmHg 76%
05:00 +17°C° 0 mm 2 m/s 743 mmHg 75%
06:00 +18°C° 0 mm 2 m/s 743 mmHg 73%
07:00 +18°C° 0 mm 2 m/s 743 mmHg 71%
08:00 +19°C° 0 mm 3 m/s 744 mmHg 67%
09:00 +21°C° 0 mm 3 m/s 744 mmHg 63%
10:00 +22°C° 0 mm 4 m/s 744 mmHg 59%
11:00 +22°C° 0 mm 4 m/s 744 mmHg 58%
12:00 +23°C° 0 mm 4 m/s 744 mmHg 56%
13:00 +25°C° 0 mm 4 m/s 744 mmHg 55%
14:00 +25°C° 0.2 mm 3 m/s 744 mmHg 57%
15:00 +25°C° 0.2 mm 3 m/s 744 mmHg 58%
16:00 +25°C° 0.2 mm 2 m/s 744 mmHg 60%
17:00 +23°C° 0.9 mm 2 m/s 744 mmHg 66%
18:00 +21°C° 0.9 mm 2 m/s 744 mmHg 73%
19:00 +19°C° 0.9 mm 2 m/s 744 mmHg 79%
20:00 +19°C° 0.4 mm 1 m/s 744 mmHg 80%
21:00 +19°C° 0.4 mm 1 m/s 744 mmHg 80%
22:00 +18°C° 0.4 mm 1 m/s 744 mmHg 81%
23:00 +18°C° 0 mm 1 m/s 743 mmHg 82%

Mâine, 25 Septembrie, Vineri

Timp Temperatura Precipitaţii Vânt Presiune Umiditate
00:00 +18°C° 0 mm 1 m/s 743 mmHg 83%
01:00 +18°C° 0 mm 1 m/s 743 mmHg 84%
02:00 +16°C° 0 mm 1 m/s 742 mmHg 85%
03:00 +16°C° 0 mm 2 m/s 742 mmHg 87%
04:00 +16°C° 0 mm 2 m/s 742 mmHg 88%
05:00 +16°C° 0 mm 2 m/s 741 mmHg 87%
06:00 +17°C° 0 mm 3 m/s 741 mmHg 86%
07:00 +17°C° 0 mm 3 m/s 740 mmHg 85%
08:00 +18°C° 0 mm 4 m/s 740 mmHg 79%
09:00 +20°C° 0 mm 5 m/s 739 mmHg 73%
10:00 +21°C° 0 mm 6 m/s 739 mmHg 68%
11:00 +23°C° 0 mm 6 m/s 739 mmHg 61%
12:00 +24°C° 0 mm 6 m/s 738 mmHg 54%
13:00 +27°C° 0 mm 6 m/s 738 mmHg 47%
14:00 +25°C° 0.1 mm 5 m/s 737 mmHg 52%
15:00 +23°C° 0.1 mm 4 m/s 737 mmHg 57%
16:00 +22°C° 0.1 mm 3 m/s 737 mmHg 62%
17:00 +21°C° 0.6 mm 4 m/s 737 mmHg 66%
18:00 +20°C° 0.6 mm 4 m/s 737 mmHg 70%
19:00 +19°C° 0.6 mm 4 m/s 737 mmHg 74%
20:00 +19°C° 0.1 mm 4 m/s 737 mmHg 77%
21:00 +19°C° 0.1 mm 4 m/s 737 mmHg 81%
22:00 +18°C° 0.1 mm 3 m/s 737 mmHg 84%
23:00 +18°C° 0 mm 3 m/s 737 mmHg 86%

Poimâine, 26 Septembrie, Sâmbătă

Timp Temperatura Precipitaţii Vânt Presiune Umiditate
00:00 +17°C° 0 mm 2 m/s 737 mmHg 87%
01:00 +18°C° 0 mm 1 m/s 737 mmHg 89%
02:00 +16°C° 0 mm 2 m/s 737 mmHg 91%
03:00 +16°C° 0 mm 2 m/s 737 mmHg 92%
04:00 +15°C° 0 mm 2 m/s 736 mmHg 94%
05:00 +16°C° 0 mm 2 m/s 736 mmHg 92%
06:00 +16°C° 0 mm 3 m/s 736 mmHg 90%
07:00 +17°C° 0 mm 3 m/s 736 mmHg 88%
08:00 +18°C° 0 mm 4 m/s 736 mmHg 85%
09:00 +19°C° 0 mm 4 m/s 735 mmHg 81%
10:00 +20°C° 0 mm 5 m/s 735 mmHg 77%
11:00 +21°C° 0 mm 5 m/s 735 mmHg 71%
12:00 +22°C° 0 mm 6 m/s 735 mmHg 65%
13:00 +23°C° 0 mm 6 m/s 735 mmHg 59%
14:00 +23°C° 0.3 mm 5 m/s 735 mmHg 63%
15:00 +22°C° 0.3 mm 5 m/s 735 mmHg 68%
16:00 +21°C° 0.3 mm 5 m/s 734 mmHg 72%
17:00 +20°C° 0.5 mm 4 m/s 735 mmHg 77%
18:00 +19°C° 0.5 mm 4 m/s 735 mmHg 82%
19:00 +18°C° 0.5 mm 4 m/s 735 mmHg 87%
20:00 +18°C° 0.9 mm 3 m/s 735 mmHg 88%
21:00 +18°C° 0.9 mm 3 m/s 735 mmHg 90%
22:00 +18°C° 0.9 mm 2 m/s 735 mmHg 92%
23:00 +18°C° 0.1 mm 3 m/s 735 mmHg 87%

27 Septembrie, Duminică

Timp Temperatura Precipitaţii Vânt Presiune Umiditate
00:00 +18°C° 0.1 mm 4 m/s 735 mmHg 82%
01:00 +17°C° 0.1 mm 5 m/s 734 mmHg 77%
02:00 +17°C° 0.3 mm 5 m/s 734 mmHg 77%
03:00 +17°C° 0.3 mm 5 m/s 734 mmHg 77%
04:00 +16°C° 0.3 mm 6 m/s 734 mmHg 77%
05:00 +16°C° 1.2 mm 6 m/s 734 mmHg 80%
06:00 +16°C° 1.2 mm 6 m/s 734 mmHg 83%
07:00 +16°C° 1.2 mm 6 m/s 734 mmHg 85%
08:00 +17°C° 0.6 mm 6 m/s 734 mmHg 85%
09:00 +17°C° 0.6 mm 7 m/s 734 mmHg 84%
10:00 +18°C° 0.6 mm 8 m/s 735 mmHg 83%
11:00 +18°C° 0.4 mm 7 m/s 735 mmHg 82%
12:00 +18°C° 0.4 mm 7 m/s 735 mmHg 81%
13:00 +17°C° 0.4 mm 7 m/s 735 mmHg 79%
14:00 +17°C° 0.9 mm 6 m/s 735 mmHg 82%
15:00 +16°C° 0.9 mm 5 m/s 735 mmHg 84%
16:00 +15°C° 0.9 mm 5 m/s 736 mmHg 86%
17:00 +14°C° 1.3 mm 5 m/s 736 mmHg 88%
18:00 +13°C° 1.3 mm 5 m/s 737 mmHg 90%
19:00 +12°C° 1.3 mm 4 m/s 737 mmHg 91%
20:00 +12°C° 0.1 mm 5 m/s 738 mmHg 91%
21:00 +10°C° 0.1 mm 5 m/s 738 mmHg 90%
22:00 +9°C° 0.1 mm 5 m/s 739 mmHg 89%
23:00 +9°C° 0 mm 5 m/s 739 mmHg 88%

28 Septembrie, Luni

Timp Temperatura Precipitaţii Vânt Presiune Umiditate
00:00 +9°C° 0 mm 5 m/s 740 mmHg 88%
01:00 +9°C° 0 mm 5 m/s 740 mmHg 87%
02:00 +10°C° 0 mm 4 m/s 741 mmHg 86%
03:00 +10°C° 0 mm 4 m/s 741 mmHg 86%
04:00 +8°C° 0 mm 4 m/s 741 mmHg 86%
05:00 +8°C° 0 mm 4 m/s 742 mmHg 84%
06:00 +8°C° 0 mm 4 m/s 742 mmHg 82%
07:00 +8°C° 0 mm 4 m/s 743 mmHg 80%
08:00 +10°C° 0 mm 4 m/s 743 mmHg 75%
09:00 +12°C° 0 mm 4 m/s 743 mmHg 70%
10:00 +13°C° 0 mm 4 m/s 743 mmHg 65%
11:00 +13°C° 0 mm 4 m/s 744 mmHg 63%
12:00 +14°C° 0 mm 5 m/s 744 mmHg 62%
13:00 +14°C° 0 mm 5 m/s 744 mmHg 60%
14:00 +14°C° 0 mm 4 m/s 744 mmHg 61%
15:00 +14°C° 0 mm 4 m/s 744 mmHg 61%
16:00 +14°C° 0 mm 3 m/s 744 mmHg 62%
17:00 +13°C° 0 mm 3 m/s 744 mmHg 66%
18:00 +12°C° 0 mm 3 m/s 744 mmHg 70%
19:00 +12°C° 0 mm 2 m/s 744 mmHg 74%
20:00 +10°C° 0 mm 2 m/s 745 mmHg 74%
21:00 +10°C° 0 mm 2 m/s 745 mmHg 75%
22:00 +10°C° 0 mm 2 m/s 745 mmHg 75%
23:00 +10°C° 0 mm 2 m/s 745 mmHg 73%

29 Septembrie, Marţi

Timp Temperatura Precipitaţii Vânt Presiune Umiditate
00:00 +10°C° 0 mm 2 m/s 744 mmHg 72%
01:00 +10°C° 0 mm 2 m/s 744 mmHg 70%
02:00 +10°C° 0 mm 2 m/s 744 mmHg 71%
03:00 +11°C° 0 mm 1 m/s 744 mmHg 73%
04:00 +11°C° 0 mm 1 m/s 743 mmHg 74%
05:00 +10°C° 0.2 mm 2 m/s 743 mmHg 78%
06:00 +10°C° 0.2 mm 2 m/s 743 mmHg 81%
07:00 +10°C° 0.2 mm 2 m/s 743 mmHg 85%
08:00 +10°C° 0.4 mm 3 m/s 743 mmHg 87%
09:00 +10°C° 0.4 mm 3 m/s 743 mmHg 89%
10:00 +10°C° 0.4 mm 3 m/s 743 mmHg 92%
11:00 +10°C° 0.2 mm 3 m/s 743 mmHg 92%
12:00 +10°C° 0.2 mm 4 m/s 743 mmHg 92%
13:00 +11°C° 0.2 mm 4 m/s 743 mmHg 92%
14:00 +11°C° 0.5 mm 4 m/s 743 mmHg 93%
15:00 +11°C° 0.5 mm 4 m/s 743 mmHg 93%
16:00 +10°C° 0.5 mm 5 m/s 743 mmHg 94%
17:00 +11°C° 0.8 mm 4 m/s 744 mmHg 94%
18:00 +11°C° 0.8 mm 4 m/s 744 mmHg 95%
19:00 +11°C° 0.8 mm 4 m/s 744 mmHg 95%
20:00 +11°C° 0.1 mm 4 m/s 744 mmHg 95%
21:00 +11°C° 0.1 mm 4 m/s 745 mmHg 95%
22:00 +11°C° 0.1 mm 4 m/s 745 mmHg 95%
23:00 +11°C° 0 mm 4 m/s 745 mmHg 95%
Arată mai mult